Flag for Trinidad and Tobago Weather past 2 weeks in San Fernando, Trinidad and Tobago

Now
84 °F

Passing clouds.


Feels Like: 92 °F
Forecast: 78 / 89 °F
Wind: No wind

Location: Piarco International Airport - Trinidad

Current Time: Sep 4, 2015 at 9:01:28 AM

Latest Report: Sep 4, 2015 at 8:00 AM


Visibility: N/A

Pressure: 29.95 "Hg

Humidity: 74%

Dew point: 75 °F

Location of San FernandoLocation

Historic Weather in San Fernando — Graph

°F

San Fernando temperature yesterday

Maximum temperature yesterday: 93 °F (at 12:00 PM)
Minimum temperature yesterday: 77 °F (at 6:00 AM)
Average temperature yesterday: 84 °F

Past Weeks' High & Low Weather Summary

 TemperatureHumidityPressure
High95 °F (Aug 25, 2:00 PM)100% (Aug 31, 10:00 AM)32.52 "Hg (Aug 31, 10:00 AM)
Low75 °F (Aug 22, 3:00 AM)49% (Aug 25, 12:00 PM)29.80 "Hg (Aug 22, 4:00 PM)
Average83 °F79%29.90 "Hg
* Reported Aug 20 8:00 AM — Sep 4 8:00 AM, San Fernando, Weather by CustomWeather, © 2015

Note: Actual official high and low records may vary slightly from our data, if they occured in-between our weather recording intervals... More about our weather records

Advertising

San Fernando weather history for previous 24 hours

 ConditionsComfort  
Time TempWeatherWind HumidityBarometerVisibility
8:00 AM
Fri, Sep 4
84 °FPassing clouds.No wind74%29.95 "HgN/A
7:00 AM79 °FPassing clouds.No wind89%29.95 "HgN/A
6:00 AM77 °FPassing clouds.No wind94%29.92 "Hg6 mi
5:00 AM77 °FPassing clouds.No wind94%29.92 "HgN/A
4:00 AM77 °FPassing clouds.No wind94%29.92 "HgN/A
3:00 AM77 °FPassing clouds.No wind94%29.89 "HgN/A
2:00 AM77 °FPassing clouds.No wind94%29.89 "HgN/A
1:00 AM79 °FPassing clouds.No wind89%29.92 "HgN/A
12:00 AM79 °FPassing clouds.No wind89%29.92 "HgN/A
11:00 PM
Thu, Sep 3
79 °FClear.No wind89%29.95 "Hg10 mi
10:00 PM81 °FPassing clouds.No wind84%29.95 "HgN/A
9:00 PM81 °FClear.No wind84%29.92 "Hg10 mi
8:00 PM82 °FClear.No wind79%29.92 "Hg10 mi
7:00 PM82 °FPassing clouds.6 mph79%29.89 "HgN/A
6:00 PM86 °FPassing clouds.9 mph70%29.86 "HgN/A
5:00 PM88 °FPassing clouds.12 mph66%29.86 "HgN/A
4:00 PM90 °FPassing clouds.9 mph63%29.86 "HgN/A
3:00 PM91 °FPassing clouds.16 mph59%29.86 "HgN/A
2:00 PM91 °FPassing clouds.14 mph56%29.89 "HgN/A
1:00 PM91 °FScattered showers. Passing clouds.12 mph59%29.92 "HgN/A
12:00 PM93 °FScattered clouds.12 mph53%29.92 "HgN/A
11:00 AM91 °FPassing clouds.9 mph59%29.95 "HgN/A
9:00 AM88 °FPassing clouds.12 mph66%29.95 "HgN/A
Weather by CustomWeather, © 2015

See weather overviewHow to use our weather pages